Regional Weather Roundup
Issued by NWS

Home | Current Version | Previous Version | Graphics & Text | Print | Product List | Glossary On
Versions: 1 2 3 4 5 6 7 8 9 10 11 12 13 14 15 16 17 18 19 20 21 22 23 24 25 26 27 28 29 30 31 32 33 34 35 36 37 38 39 40 41 42 43 44 45 46 47 48 49 50
000
ASUS43 KLOT 182100
RWRIL

ILLINOIS REGIONAL WEATHER ROUNDUP
NATIONAL WEATHER SERVICE CHICAGO/ROMEOVILLE IL
400 PM CDT FRI APR 18 2014

NOTE: "FAIR" INDICATES FEW OR NO CLOUDS BELOW 12,000 FEET WITH NO
SIGNIFICANT WEATHER AND/OR OBSTRUCTIONS TO VISIBILITY.

* THESE STATIONS ARE NOT UNDER NWS QUALITY CONTROL. THEY ALSO MAY NOT
  REPORT WEATHER SUCH AS PRECIPITATION OR FOG.

ILZ001-002-007-009-015-016-024-182200-
NORTHWEST ILLINOIS

CITY           SKY/WX    TMP DP  RH WIND       PRES   REMARKS
MOLINE         SUNNY     64  30  27 VRB6      30.28F
STERLING*      SUNNY     64  32  29 W5        30.29S
$$

ILZ003-004-008-010-011-017-018-182200-
NORTH CENTRAL ILLINOIS

CITY           SKY/WX    TMP DP  RH WIND       PRES   REMARKS
ROCKFORD       MOSUNNY   59  29  31 VRB5      30.31F
$$

ILZ005-006-012>014-019>023-182200-
NORTHEAST ILLINOIS

CITY           SKY/WX    TMP DP  RH WIND       PRES   REMARKS
CHICAGO-OHARE  MOSUNNY   48  31  51 NE13      30.33F
CHICAGO-MIDWAY MOSUNNY   49  35  58 NE12      30.33F
AURORA         SUNNY     62  33  33 CALM      30.28F
WAUKEGAN       SUNNY     42  31  64 NE9       30.34F
DUPAGE AIRPORT SUNNY     58  37  45 NE10      30.29F
WHEELING       SUNNY     46  32  58 NE13      30.35F
NORTHERLY ISL    N/A     41  34  76 NE10        N/A
$$

LMZ740>746-182200-
SOUTHERN LAKE MICHIGAN

STATION/POSITION SKY/WX   TEMP    WIND        PRES    VSBY  WAVE
                          AIR SEA DIR/SP/G                  HT/PER
                          (F)     (DEG/KT/KT) (MB)    (MI)  (FT/S)
WAUKEGAN HARBOR            36      60/ 10/ 11 1029.1S
HARRISON CRIB              37      30/ 14/ 15   N/A
BURNHAM HARBOR             42      30/  9/ 13   N/A
CALUMET HARBOR             39      20/ 12/ 14 1028.6F
MICHIGAN CITY              39     350/ 10/ 12   N/A
$$

ILZ025>027-034>036-040-047-049-050-058-095>099-182200-
WEST-CENTRAL ILLINOIS

CITY           SKY/WX    TMP DP  RH WIND       PRES   REMARKS
QUINCY         SUNNY     65  34  31 CALM      30.25F
$$

ILZ028>032-037-038-041>044-048-051>054-059>061-182200-
CENTRAL ILLINOIS

CITY           SKY/WX    TMP DP  RH WIND       PRES   REMARKS
DECATUR        SUNNY     69  34  27 MISG      30.26F
PEORIA         SUNNY     65  33  30 E8        30.28F
SPRINGFIELD    SUNNY     69  32  25 VRB5      30.26F
TAYLORVILLE    NOT AVBL
$$

ILZ033-039-045-046-055>057-062-063-182200-
EAST-CENTRAL ILLINOIS

CITY           SKY/WX    TMP DP  RH WIND       PRES   REMARKS
CHAMPAIGN      SUNNY     67  32  27 CALM      30.26F
MATTOON        SUNNY     68  42  38 N8        30.24F
$$

ILZ079-100>102-182200-
SOUTHWEST ILLINOIS

CITY           SKY/WX    TMP DP  RH WIND       PRES   REMARKS
ALTON          SUNNY     68  37  32 VRB3      30.26F
BELLEVILLE     SUNNY     69  45  41 VRB5      30.23F
CAHOKIA*       SUNNY     70  43  37 CALM      30.24F
$$

ILZ064>066-069>071-074>076-080>082-084>086-088>090-092>094-182200-
SOUTH-CENTRAL ILLINOIS

CITY           SKY/WX    TMP DP  RH WIND       PRES   REMARKS
CARBONDALE     MOSUNNY   71  40  32 VRB5      30.22F
MARION         PTSUNNY   72  43  35 N12       30.23F
MT. VERNON     SUNNY     70  39  32 N6        30.24F
$$

ILZ067-068-072-073-078-083-087-091-182200-
SOUTHEAST ILLINOIS

CITY           SKY/WX    TMP DP  RH WIND       PRES   REMARKS
ROBINSON*      SUNNY     72  41  33 N7        30.24F
$$

ABBREVIATIONS USED IN REMARKS
   TC - TEMPERATURE IN CELSIUS
  WCI - WIND CHILL INDEX
   HX - HEAT INDEX
  VSB - VISIBILITY
$$




USA.gov is the U.S. government's official web portal to all federal, state and local government web resources and services.